Weather in Zuivka

Ukraine / Donetsk Region     48°03′34″N   38°14′53″E
temp.,
°C
wind,
m/s
gust,
m/s
humid.,
%
clouds,
%
prec.,
mm/h
press.,
hPa
HPBL,
m
13 may, thu
thu1300:00+10sse2497100 2.8 1014141
03:00+9e22955 3.5 101428
06:00+9ese229428 0.1 101452
09:00+15sse34761 0.1 1014563
12:00+20s455745 0.0 10131303
15:00+22sse4550100 0.0 10131479
18:00+20sse2463100 0.0 1013187
21:00+15e22802 0.0 101417
14 may, fri
fri1400:00+14e359060 0.0 101371
03:00+13e4119158 0.0 1012197
06:00+14ese4138880 0.0 1012321
09:00+19se61165100 0.0 1011513
12:00+23ese6756100 0.0 1011588
15:00+26sse6747100 0.0 10101030
18:00+24s4659100 0.0 1010346
21:00+18ssw33785 0.0 101138
15 may, sat
sat1500:00+16wsw22700 0.0 101115
03:00+14nw22762 0.0 101214
06:00+15nne3480100 0.0 101397
09:00+21nw12537 0.0 1014540
12:00+24wnw223822 0.0 10141300
15:00+26ssw223614 0.0 10141908
18:00+25sw224710 0.0 1013364
21:00+19nnw335982 0.0 101329
16 may, sun
sun1600:00+17nne357069 0.0 101377
03:00+16ne36725 0.0 101399
06:00+16nne4117828 0.0 1012254
09:00+22ne586349 0.0 1012574
12:00+26ene565099 0.0 10101114
15:00+27e664510 0.0 10091437
18:00+24e59539 0.0 1008803
21:00+19ne410685 0.0 1008166
17 may, mon
mon1700:00+19e614614 0.0 1007324
03:00+17e5136047 0.0 1007260
06:00+16e514604 0.0 1007312
09:00+20ese7104926 0.0 1007616
12:00+24se67455 0.0 1007907
15:00+26se44455 0.0 10071364
18:00+25ese465699 0.0 1007469
21:00+19sse237614 0.0 100731